Regional Weather Roundup
Issued by NWS Burlington, VT

Home | Current Version | Previous Version | Text Only | Print | Product List | Glossary On
Versions: 1 2 3 4 5 6 7 8 9 10 11 12 13 14 15 16 17 18 19 20 21 22 23 24 25 26 27 28 29 30 31 32 33 34 35 36 37 38 39 40 41 42 43 44 45 46 47 48 49 50
322
ASUS41 KBTV 250010
RWRBTV
VERMONT REGIONAL WEATHER ROUNDUP
NATIONAL WEATHER SERVICE BURLINGTON VT
800 PM EDT SUN JUL 24 2016

NOTE: "FAIR" INDICATES FEW OR NO CLOUDS BELOW 12,000 FEET WITH NO
SIGNIFICANT WEATHER AND/OR OBSTRUCTIONS TO VISIBILITY.

* THESE REPORTS ARE NOT UNDER NWS QUALITY CONTROL AND/OR DO NOT
  REPORT WEATHER SUCH AS PRECIPITATION AND FOG.

VTZ001>019-250100-
_____VERMONT_____


CITY           SKY/WX    TMP DP  RH WIND       PRES   REMARKS
BURLINGTON     MOCLDY    75  56  51 NW7       29.98R
6HR MIN TEMP:  74; 6HR MAX TEMP:  79;

MONTPELIER     FAIR      66  56  70 S5        30.04R
6HR MIN TEMP:  66; 6HR MAX TEMP:  75;

MORRISVILLE    FAIR      66  61  84 CALM      30.01S
6HR MIN TEMP:  66; 6HR MAX TEMP:  76;

ST. JOHNSBURY*   N/A     71  61  70 MISG      29.98R
6HR MIN TEMP:  71; 6HR MAX TEMP:  78;

LYNDONVILLE*   FAIR      68  58  71 CALM      30.03R
6HR MIN TEMP:  68; 6HR MAX TEMP:  73;

MIDDLEBURY*    FAIR      70  60  71 CALM      29.98S
6HR MIN TEMP:  70; 6HR MAX TEMP:  79;

RUTLAND*       FAIR      73  58  59 SE5       29.99S
6HR MIN TEMP:  73; 6HR MAX TEMP:  80;

SPRINGFIELD    FAIR      71  60  68 CALM      29.98R
6HR MIN TEMP:  71; 6HR MAX TEMP:  84;

HIGHGATE*      FAIR      68  61  76 CALM      29.98R
6HR MIN TEMP:  68; 6HR MAX TEMP:  76;

NEWPORT*       FAIR      68  59  72 W3        30.01S
6HR MIN TEMP:  68; 6HR MAX TEMP:  73;

BENNINGTON     FAIR      72  63  73 CALM      29.99R
6HR MIN TEMP:  70; 6HR MAX TEMP:  84;


_____LAKE CHAMPLAIN_____


CITY           SKY/WX    TMP DP  RH WIND       PRES   REMARKS
BURTON ISLAND*   N/A     75  59  57 NE1         N/A
COLCHESTER RF*   N/A     73  59  60 NW6         N/A
DIAMOND ISL*     N/A     75  59  57 N7          N/A

$$

NYZ007-026>031-035-052-083-087-250100-
_____NORTHERN NEW YORK_____


CITY           SKY/WX    TMP DP  RH WIND       PRES   REMARKS
PLATTSBURGH    CLEAR     70  61  73 SW3       29.98R
6HR MIN TEMP:  70; 6HR MAX TEMP:  75;

SARANAC LAKE   CLEAR     70  54  56 CALM      30.01R
6HR MIN TEMP:  69; 6HR MAX TEMP:  79;

MASSENA        PTCLDY    70  59  68 CALM      29.98R
6HR MIN TEMP:  70; 6HR MAX TEMP:  80;

OGDENSBURG*    CLEAR     72  63  73 SE3       29.96F
POTSDAM*       CLEAR     70  63  78 CALM      29.98S
WATERTOWN      CLOUDY    75  60  59 CALM      29.95S
6HR MIN TEMP:  75; 6HR MAX TEMP:  86;

FT DRUM        CLOUDY    77  56  48 NW2       29.97S
6HR MIN TEMP:  77; 6HR MAX TEMP:  84; 6HR PCP: TRACE;

ALBANY         MOCLDY    81  56  42 NW5       29.95S
6HR MIN TEMP:  81; 6HR MAX TEMP:  88;

GLENS FALLS    CLEAR     76  65  68 CALM      29.96R
6HR MIN TEMP:  75; 6HR MAX TEMP:  83;


$$
NHZ002-005-011-250100-
_____NEW HAMPSHIRE_____


CITY           SKY/WX    TMP DP  RH WIND       PRES   REMARKS
LEBANON        CLEAR     70  60  70 CALM      29.98R
6HR MIN TEMP:  70; 6HR MAX TEMP:  85;

KEENE          CLEAR     76  60  57 CALM      29.99
6HR MIN TEMP:  76; 6HR MAX TEMP:  86;

MT WASHINGTON  PTCLDY    54  28  37 NW18        N/A
6HR MIN TEMP:  53; 6HR MAX TEMP:  59;

PLYMOUTH       FAIR      73  57  58 CALM      29.97S
6HR MIN TEMP:  73; 6HR MAX TEMP:  80;

WHITEFIELD     PTCLDY    68  60  75 CALM      30.01R
6HR MIN TEMP:  68; 6HR MAX TEMP:  76;


$$

_____REGIONAL QUEBEC LOCATIONS_____


CITY           SKY/WX    TMP DP  RH WIND       PRES   REMARKS
MONTREAL       MOCLDY    73  57  56 SW9       29.97R
QUEBEC CITY    MOCLDY    72  59  64 SW10      29.92R
SHERBROOKE     PTCLDY    66  61  82 CALM      29.99R

_____REGIONAL ONTARIO LOCATIONS_____


CITY           SKY/WX    TMP DP  RH WIND       PRES   REMARKS
OTTAWA         MOCLDY    73  59  60 SE3       29.96S

______KEY______
VSB  - VISIBILITY IN MILES
WCI  - WIND CHILL INDEX
HX   - HEAT INDEX
$$
NNNN




USA.gov is the U.S. government's official web portal to all federal, state and local government web resources and services.